Regional Weather Roundup
Issued by NWS

Home | Current Version | Previous Version | Graphics & Text | Print | Product List | Glossary On
Versions: 1 2 3 4 5 6 7 8 9 10 11 12 13 14 15 16 17 18 19 20 21 22 23 24 25 26 27 28 29 30 31 32 33 34 35 36 37 38 39 40 41 42 43 44 45 46 47 48 49 50
747
ASUS43 KLMK 211110
RWRKY
KENTUCKY REGIONAL WEATHER ROUNDUP
NATIONAL WEATHER SERVICE LOUISVILLE KY
600 AM EST WED FEB 21 2018

NOTE "FAIR" INDICATES FEW OR NO CLOUDS BELOW 12,000 FEET
WITH NO SIGNIFICANT WEATHER AND/OR OBSTRUCTIONS TO VISIBILITY.

KYZ001>023-026-027-061>063-070>075-211200-
WESTERN AND SOUTH CENTRAL KENTUCKY

CITY           SKY/WX    TMP DP  RH WIND       PRES   REMARKS
PADUCAH        LGT RAIN  42  39  89 N12G21    30.27R
HENDERSON      RAIN      45  43  93 NW14      30.28R
OWENSBORO      LGT RAIN  48  47  96 NW13      30.24R
HOPKINSVILLE   LGT RAIN  68  59  73 NW22G41   30.18R
BOWLING GREEN  CLOUDY    70  64  81 S10       30.18R
GLASGOW        CLOUDY    70  61  73 SW13G20   30.18R
$$

KYZ024-025-028>034-038-045-046-053-211200-
NORTH CENTRAL KENTUCKY

CITY           SKY/WX    TMP DP  RH WIND       PRES   REMARKS
LOUISVILLE/SDF HVY RAIN  61  58  90 E3        30.19R FOG
LOUISVILLE/LOU CLOUDY    60  59  96 NE3       30.19R
FORT KNOX      LGT RAIN  59  58  98 N5        30.19R
$$

KYZ035>037-039>044-047>052-055>060-089>105-211200-
NORTHEAST KENTUCKY

CITY           SKY/WX    TMP DP  RH WIND       PRES   REMARKS
LEXINGTON      MOCLDY    67  59  75 S13       30.19R
COVINGTON      LGT RAIN  58  57  97 N15G30    30.18R
FRANKFORT      CLOUDY    70  59  68 SW14G25   30.16R
$$

KYZ054-064>069-076>088-106>120-211200-
SOUTHEAST KENTUCKY

CITY           SKY/WX    TMP DP  RH WIND       PRES   REMARKS
JACKSON        FAIR      66  55  67 S9G23     30.24R
LONDON         FAIR      66  57  72 S6        30.25R
SOMERSET       MOCLDY    66  59  77 MISG      30.25S
MIDDLESBORO    CLOUDY    67  60  78 S8G18     30.31R
MONTICELLO     NOT AVBL
$$





USA.gov is the U.S. government's official web portal to all federal, state and local government web resources and services.